Location: Newark
(34.0131°N, 4.3314°W)
Time: 22:09:31
(UTC+00:00)

Hubble Space Telescope - Visible Passes

Search period start: 15 September 2019 00:00
Search period end: 25 September 2019 00:00
Orbit: 536 x 540 km, 28.5° (Epoch: 14 September)

Date Brightness Start Highest point End Pass type
(mag) Time Alt. Az. Time Alt. Az. Time Alt. Az.
15 Sep 2.9 03:49:44 19° SE 03:49:44 19° SE 03:51:34 10° ESE visible
15 Sep 1.7 05:25:10 10° WSW 05:29:00 38° S 05:32:50 10° ESE visible
16 Sep 3.2 03:39:49 17° ESE 03:39:49 17° ESE 03:41:07 10° ESE visible
16 Sep 1.6 05:15:09 13° WSW 05:18:25 38° S 05:22:15 10° ESE visible
17 Sep 3.5 03:29:54 14° ESE 03:29:54 14° ESE 03:30:37 10° ESE visible
17 Sep 1.6 05:05:15 18° WSW 05:07:49 37° S 05:11:39 10° ESE visible
18 Sep 3.8 03:20:01 10° ESE 03:20:01 10° ESE 03:20:05 10° ESE visible
18 Sep 1.6 04:55:21 23° SW 04:57:13 36° S 05:01:01 10° ESE visible
19 Sep 1.7 04:45:30 29° SW 04:46:37 34° S 04:50:21 10° ESE visible
20 Sep 1.7 04:35:41 31° SSW 04:36:00 31° S 04:39:40 10° SE visible
21 Sep 2.1 04:25:56 27° S 04:25:56 27° S 04:28:56 10° SE visible
22 Sep 2.6 04:16:14 20° SSE 04:16:14 20° SSE 04:18:09 10° SE visible
23 Sep 3.2 04:06:37 13° SSE 04:06:37 13° SSE 04:07:18 10° SSE visible
